Location: Skymont Scout Reservation
(35.4344°N, 85.8742°W)
Time: 16:36:01
(UTC-06:00)

ISS - All Passes

Search period start: 31 January 2015 00:00
Search period end: 10 February 2015 00:00
Orbit: 400 x 408 km, 51.6° (Epoch: 31 January)

Date Brightness Start Highest point End Pass type
(mag) Time Alt. Az. Time Alt. Az. Time Alt. Az.
31 Jan - 02:43:12 10° NNW 02:45:41 20° NNE 02:48:12 10° E night (unlit)
31 Jan - 04:19:10 10° WNW 04:22:18 40° SW 04:25:24 10° SSE visible
31 Jan - 19:20:49 10° S 19:23:30 24° SE 19:26:16 10° ENE visible
31 Jan - 20:57:04 10° W 20:59:56 27° NW 21:02:48 10° NNE night (unlit)
01 Feb - 01:51:36 10° N 01:53:08 13° NNE 01:54:45 10° NE night (unlit)
01 Feb - 03:26:46 10° NW 03:30:04 89° ENE 03:33:21 10° SE night (unlit)
01 Feb - 18:30:08 10° SSE 18:31:21 12° SE 18:32:42 10° ESE visible
01 Feb - 20:04:20 10° WSW 20:07:32 51° NW 20:10:44 10° NE visible
02 Feb - 02:34:34 10° NW 02:37:43 42° NE 02:40:51 10° ESE night (unlit)
02 Feb - 04:11:56 10° W 04:13:58 15° SW 04:15:53 10° SSW night (unlit)
02 Feb - 19:11:57 10° SW 19:15:11 72° SE 19:18:27 10° NE visible
02 Feb - 20:50:06 10° WNW 20:52:01 14° NNW 20:53:52 10° N night (unlit)
03 Feb - 01:42:32 10° NNW 01:45:14 23° NNE 01:47:58 10° E night (unlit)
03 Feb - 03:18:47 10° WNW 03:21:45 31° SW 03:24:41 10° SSE night (unlit)
03 Feb - 18:19:58 10° SSW 18:22:54 31° SE 18:25:52 10° ENE visible
03 Feb - 19:56:45 10° W 19:59:25 22° NNW 20:02:04 10° NNE visible
04 Feb - 00:50:43 10° N 00:52:38 15° NNE 00:54:37 10° ENE night (unlit)
04 Feb - 02:26:11 10° NW 02:29:27 70° SW 02:32:43 10° SE night (unlit)
04 Feb - 17:28:42 10° SSE 17:30:39 15° SE 17:32:41 10° E daylight
04 Feb - 19:03:47 10° WSW 19:06:53 40° NW 19:10:00 10° NE visible
05 Feb - 01:33:49 10° NW 01:37:03 53° NE 01:40:17 10° ESE night (unlit)
05 Feb - 03:11:56 10° WSW 03:13:13 12° SW 03:14:23 10° SSW night (unlit)
05 Feb - 18:11:11 10° SW 18:14:26 86° NW 18:17:43 10° NE visible
05 Feb - 19:49:52 10° NW 19:51:22 12° NNW 19:52:49 10° N visible
06 Feb - 00:41:39 10° NNW 00:44:31 28° NE 00:47:26 10° E night (unlit)
06 Feb - 02:18:12 10° WNW 02:20:56 24° SW 02:23:38 10° S night (unlit)
06 Feb - 17:18:58 10° SSW 17:22:03 41° SE 17:25:09 10° ENE daylight
06 Feb - 18:56:12 10° W 18:58:39 19° NNW 19:01:05 10° NNE visible
06 Feb - 23:49:39 10° NNW 23:51:53 17° NNE 23:54:09 10° ENE night (unlit)
07 Feb - 01:25:22 10° WNW 01:28:35 52° SW 01:31:47 10° SSE night (unlit)
07 Feb - 16:27:19 10° S 16:29:41 19° SE 16:32:09 10° E daylight
07 Feb - 18:03:02 10° WSW 18:06:01 32° NW 18:09:01 10° NNE visible
07 Feb - 22:58:06 10° N 22:59:07 11° NNE 23:00:12 10° NE night (unlit)
08 Feb - 00:32:51 10° NW 00:36:08 69° NE 00:39:24 10° SE night (unlit)
08 Feb - 17:10:13 10° SW 17:13:27 66° NW 17:16:42 10° NE daylight
08 Feb - 18:49:32 10° NW 18:50:28 11° NNW 18:51:20 10° N visible
08 Feb - 23:40:32 10° NNW 23:43:33 33° NE 23:46:36 10° ESE night (unlit)
09 Feb - 01:17:26 10° W 01:19:52 19° SW 01:22:14 10° S night (unlit)
09 Feb - 16:17:47 10° SSW 16:20:57 54° SE 16:24:09 10° ENE daylight
09 Feb - 17:55:28 10° WNW 17:57:40 16° NNW 17:59:49 10° NNE visible
09 Feb - 22:48:23 10° NNW 22:50:52 20° NNE 22:53:22 10° E night (unlit)
